Location: Beddau
(51.5575°N, 3.3561°W)
Time: 11:51:43
(UTC+00:00)

Cosmos 2360 Rocket - Pass Details

Date: 03 March 2021
Orbit: 832 x 846 km, 71.0° (Epoch: 16 April)

Event Time Altitude Azimuth Distance (km) Brightness Sun altitude
Rises 18:38:01 0° 174° (S) 3,377 5.3 -7.1°
Reaches altitude 10° 18:40:43 10° 163° (SSE) 2,450 4.5 -7.5°
Maximum altitude 18:45:29 29° 105° (ESE) 1,491 3.0 -8.2°
Drops below altitude 10° 18:50:18 10° 47° (NE) 2,472 4.2 -9.0°
Sets 18:53:01 0° 37° (NE) 3,414 5.0 -9.4°
